This is the latest recevied weather packets stored in our database for station/object DO1MIT-10. If no packets are shown the sender has not sent any weather packets the latest 10 day(s).
| Time | Temp. | Humidity | Pressure | Rain* | Wind** | Luminosity | Snow |
|---|---|---|---|---|---|---|---|
| 1787394143 | 17.78° C | 89% | 1018.8 hPa | - | - | - | - |
| 1787393243 | 17.78° C | 90% | 1018.7 hPa | - | - | - | - |
| 1787392343 | 16.67° C | 89% | 1018.6 hPa | - | - | - | - |
| 1787391443 | 15.56° C | 90% | 1018.4 hPa | - | - | - | - |
| 1787390543 | 15° C | 90% | 1018.2 hPa | - | - | - | - |
| 1787389643 | 13.89° C | 90% | 1018 hPa | - | - | - | - |
| 1787388743 | 13.89° C | 89% | 1017.8 hPa | - | - | - | - |
| 1787387842 | 12.78° C | 89% | 1017.5 hPa | - | - | - | - |
| 1787386942 | 12.78° C | 88% | 1017.3 hPa | - | - | - | - |
| 1787386042 | 13.33° C | 85% | 1016.8 hPa | - | - | - | - |
| 1787385142 | 15.56° C | 84% | 1016.3 hPa | - | - | - | - |
| 1787384242 | 15.56° C | 84% | 1016.1 hPa | - | - | - | - |
| 1787383342 | 16.67° C | 84% | 1015.8 hPa | - | - | - | - |
| 1787382442 | 17.22° C | 84% | 1015.8 hPa | - | - | - | - |
| 1787381542 | 16.67° C | 85% | 1015.6 hPa | - | - | - | - |
| 1787380642 | 15.56° C | 85% | 1015.6 hPa | - | - | - | - |
| 1787379742 | 15.56° C | 85% | 1015.4 hPa | - | - | - | - |
| 1787378841 | 15.56° C | 85% | 1015.3 hPa | - | - | - | - |
| 1787377941 | 15.56° C | 85% | 1015.3 hPa | - | - | - | - |
| 1787377041 | 15.56° C | 85% | 1015.1 hPa | - | - | - | - |
| 1787376141 | 15.56° C | 85% | 1015.1 hPa | - | - | - | - |
| 1787375241 | 15.56° C | 85% | 1014.9 hPa | - | - | - | - |
| 1787374341 | 15° C | 85% | 1014.9 hPa | - | - | - | - |
| 1787373441 | 15° C | 85% | 1014.9 hPa | - | - | - | - |
| 1787372541 | 15° C | 85% | 1014.7 hPa | - | - | - | - |
* Rain since midnight (hover to see other rain measurements)
** Current wind speed in m/s (hover to see current wind gust speed)